Chino, CA

2:47 PM PDT on August 16, 2017 (GMT -0700)
Chino

Weather History for KCNO - March, 2013

Change the Weather History Date:

Saturday, March 2, 2013

  Actual Average Record
Temperature  
Mean Temperature 62 °F -  
Max Temperature 84 °F 64 °F 84 °F (2013)
Min Temperature 39 °F 41 °F 33 °F (2007)
Degree Days  
Heating Degree Days 4    
Growing Degree Days 12 (Base 50)    
Moisture  
Dew Point 30 °F    
Average Humidity 37    
Maximum Humidity 73    
Minimum Humidity 11    
Precipitation  
Precipitation 0.00 in - - ()
Sea Level Pressure  
Sea Level Pressure 30.16 in    
Wind  
Wind Speed 3 mph (West)    
Max Wind Speed 12 mph    
Max Gust Speed -    
Visibility 10 miles    
Events      
Averages and records for this station are not official NWS values.
T = Trace of Precipitation, MM = Missing Value Source: NWS Daily Summary

Daily Weather History Graph

Daily Weather History Graph

Search for Another Location

Airport or City:

Trip Planner

Search our weather history database for the weather conditions in past years. The results will help you decide how hot, cold, wet, or windy it might be!

Date:

Astronomy

Mar. 02, 2013 Rise Set
Actual Time 6:17 AM PST 5:48 PM PST
Civil Twilight 5:52 AM PST 6:13 PM PST
Nautical Twilight 5:23 AM PST 6:42 PM PST
Astronomical Twilight 4:54 AM PST 7:11 PM PST
Moon 11:15 PM PST (3/2) 9:05 AM PST (3/2)
Length of Visible Light 12h 20m
Length of Day
11h 30m
Waning Gibbous, 73% of the Moon is Illuminated
Mar 2
Waning Gibbous
Mar 4
Last Quarter
Mar 11
New
Mar 19
First Quarter
Mar 27
Full

Hourly Weather History & Observations

Time (PST) Temp. Windchill Dew Point Humidity Pressure Visibility Wind Dir Wind Speed Gust Speed Precip Events Conditions
12:53 AM 50.0 °F - 34.0 °F 54% 30.23 in 10.0 mi Calm Calm - N/A   Clear
1:53 AM 46.0 °F 43.9 °F 34.0 °F 63% 30.22 in 10.0 mi North 4.6 mph - N/A   Clear
2:53 AM 41.0 °F - 33.1 °F 73% 30.21 in 10.0 mi Calm Calm - N/A   Clear
4:53 AM 39.9 °F - 32.0 °F 73% 30.21 in 10.0 mi Calm Calm - N/A   Clear
5:53 AM 46.0 °F 44.8 °F 32.0 °F 58% 30.22 in 10.0 mi NNE 3.5 mph - N/A   Clear
6:53 AM 42.1 °F - 33.1 °F 70% 30.23 in 10.0 mi Calm Calm - N/A   Clear
7:53 AM 55.0 °F - 39.0 °F 55% 30.23 in 10.0 mi Calm Calm - N/A   Partly Cloudy
8:53 AM 64.9 °F - 35.1 °F 33% 30.23 in 10.0 mi Calm Calm - N/A   Partly Cloudy
9:53 AM 73.0 °F - 30.0 °F 20% 30.21 in 10.0 mi Calm Calm - N/A   Mostly Cloudy
10:53 AM 79.0 °F - 28.0 °F 15% 30.20 in 10.0 mi Calm Calm - N/A   Mostly Cloudy
11:53 AM 81.0 °F - 24.1 °F 12% 30.18 in 10.0 mi Variable 3.5 mph - N/A   Mostly Cloudy
12:53 PM 84.0 °F - 23.0 °F 11% 30.14 in 10.0 mi WSW 6.9 mph - N/A   Mostly Cloudy
1:53 PM 82.9 °F - 21.9 °F 11% 30.12 in 10.0 mi WSW 8.1 mph - N/A   Mostly Cloudy
2:53 PM 82.0 °F - 21.9 °F 11% 30.09 in 10.0 mi WSW 10.4 mph - N/A   Mostly Cloudy
3:53 PM 82.0 °F - 26.1 °F 13% 30.09 in 10.0 mi West 10.4 mph - N/A   Mostly Cloudy
4:53 PM 78.1 °F - 25.0 °F 14% 30.08 in 10.0 mi WSW 11.5 mph - N/A   Mostly Cloudy
5:53 PM 69.1 °F - 28.0 °F 22% 30.09 in 10.0 mi WSW 5.8 mph - N/A   Mostly Cloudy
6:53 PM 66.9 °F - 28.9 °F 24% 30.11 in 10.0 mi WSW 11.5 mph - N/A   Mostly Cloudy
7:53 PM 62.1 °F - 30.9 °F 31% 30.11 in 10.0 mi Calm Calm - N/A   Clear
8:53 PM 60.1 °F - 30.9 °F 33% 30.12 in 10.0 mi Calm Calm - N/A   Clear
9:53 PM 57.9 °F - 34.0 °F 41% 30.13 in 9.0 mi East 3.5 mph - N/A   Clear
10:53 PM 51.1 °F - 36.0 °F 56% 30.12 in 8.0 mi Calm Calm - N/A   Clear
11:53 PM 51.1 °F - 37.0 °F 59% 30.11 in 9.0 mi Calm Calm - N/A   Clear